Location: ShareBrained
(45.5589°N, 122.6491°W)
Time: 08:30:01
(UTC-08:00)

NOAA 19 - Pass Details

Date: 25 January 2020
Orbit: 840 x 861 km, 99.2° (Epoch: 25 February)

Event Time Altitude Azimuth Distance (km) Brightness Sun altitude
Rises 04:35:44 0° 32° (NNE) 3,406 8.8 -32.1°
Reaches altitude 10° 04:39:22 10° 57° (ENE) 2,465 8.3 -31.4°
Maximum altitude 04:42:10 14° 89° (E) 2,180 8.1 -30.9°
Drops below altitude 10° 04:44:58 10° 120° (ESE) 2,457 8.3 -30.4°
Sets 04:48:33 0° 145° (SE) 3,388 8.8 -29.8°
